Location: Eaton Estates
(41.3089°N, 82.0057°W)
Time: 12:27:50
(UTC+00:00)

Cosmos 2123 Rocket - Pass Details

Date: 25 October 2021
Orbit: 961 x 992 km, 82.9° (Epoch: 29 November)

Event Time Altitude Azimuth Distance (km) Brightness Sun altitude
Rises 23:34:07 0° 351° (N) 3,714 7.1 -12.3°
Reaches altitude 10° 23:36:39 10° 351° (N) 2,758 6.4 -12.8°
Maximum altitude 23:42:59 82° 265° (W) 999 4.1 -13.9°
Drops below altitude 10° 23:49:14 10° 178° (S) 2,722 6.4 -15.1°
Sets 23:51:43 0° 178° (S) 3,662 7.0 -15.6°
